User: anonymous   Login
Location: Unspecified
(0.0000°N, 0.0000°E)
Time: 20:33:43
(UTC+00:00)
Language:

DIY-1/ARDUIQUBE - Orbit

View from above orbital plane
View from above orbital plane
View from above satellite
View from above satellite

Ground track
Ground track

The orbit data is extracted from the following two-line orbital elements,

1 47963U 21022AH  22268.22707304  .00020478  00000-0  10577-2 0  9994
2 47963  97.5202 168.5547 0017197 140.5221 219.7268 15.16197845 82059
Epoch (UTC): 25 September 2022 05:26:59
Eccentricity: 0.0017197
inclination: 97.5202°
perigee height: 505 km
apogee height: 529 km
right ascension of ascending node: 168.5547°
argument of perigee: 140.5221°
revolutions per day: 15.16197845
mean anomaly at epoch: 219.7268°
orbit number at epoch: 8205

The dashed part of the orbit path shows where the satellite is in the earth's shadow,  

DLR